Weather History for KMSO - February, 2014

Change the Weather History Date:

Saturday, February 22, 2014

  Actual Average Record
Temperature  
Mean Temperature 15 °F 32 °F  
Max Temperature 25 °F 41 °F 56 °F (1995)
Min Temperature 5 °F 22 °F -14 °F (1910)
Degree Days  
Heating Degree Days 50 33  
Month to date heating degree days 960 785  
Since 1 July heating degree days 5219 5174  
Cooling Degree Days 0 0  
Month to date cooling degree days 0 0  
Year to date cooling degree days 0 0  
Moisture  
Dew Point 13 °F    
Average Humidity 87    
Maximum Humidity 100    
Minimum Humidity 73    
Precipitation  
Precipitation T in 0.02 in 0.37 in (2012)
Month to date precipitation 1.24 0.54  
Year to date precipitation 2.12 1.39  
Snow  
Snow T in - - ()
Month to date snowfall 19.7  
Year to date snowfall 26.2  
Since 1 July snowfall 40.1  
Snow Depth 5.00 in    
Sea Level Pressure  
Sea Level Pressure 30.17 in    
Wind  
Wind Speed 1 mph (NW)    
Max Wind Speed 7 mph    
Max Gust Speed 7 mph    
Visibility 8 miles    
Events Snow    
T = Trace of Precipitation, MM = Missing Value Source: NWS Daily Summary

Daily Weather History Graph

Daily Weather History Graph

Search for Another Location

Airport or City:

Trip Planner

Search our weather history database for the weather conditions in past years. The results will help you decide how hot, cold, wet, or windy it might be!

Date:

Astronomy

Feb. 22, 2014 Rise Set
Actual Time 7:28 AM MST 6:11 PM MST
Civil Twilight 6:57 AM MST 6:42 PM MST
Nautical Twilight 6:22 AM MST 7:17 PM MST
Astronomical Twilight 5:47 AM MST 7:53 PM MST
Moon 1:37 AM MST (2/22) 11:15 AM MST (2/22)
Length of Visible Light 11h 44m
Length of Day
10h 43m
Waning Gibbous, 49% of the Moon is Illuminated
Feb 22
Waning Gibbous
Mar 1
New
Mar 8
First Quarter
Mar 16
Full
Mar 23
Last Quarter

Hourly Weather History & Observations

Time (MST) Temp. Windchill Dew Point Humidity Pressure Visibility Wind Dir Wind Speed Gust Speed Precip Events Conditions
12:53 AM 12.0 °F 5.9 °F 6.1 °F 77% 30.17 in 10.0 mi WNW 3.5 mph - N/A   Clear
1:53 AM 10.9 °F - 7.0 °F 84% 30.18 in 10.0 mi Calm Calm - N/A   Clear
2:53 AM 10.0 °F - 6.1 °F 84% 30.18 in 10.0 mi Calm Calm - N/A   Partly Cloudy
3:53 AM 10.0 °F - 7.0 °F 87% 30.18 in 10.0 mi Calm Calm - N/A   Clear
4:53 AM 8.1 °F 1.4 °F 5.0 °F 87% 30.20 in 10.0 mi NNW 3.5 mph - N/A   Clear
5:53 AM 7.0 °F - 3.0 °F 84% 30.21 in 10.0 mi Calm Calm - N/A   Clear
6:53 AM 5.0 °F - 1.9 °F 87% 30.22 in 10.0 mi Calm Calm - N/A   Scattered Clouds
7:53 AM 7.0 °F - 3.9 °F 87% 30.22 in 10.0 mi Calm Calm - N/A   Overcast
8:53 AM 9.0 °F - 8.1 °F 96% 30.22 in 10.0 mi Calm Calm - N/A   Overcast
9:53 AM 14.0 °F - 10.0 °F 84% 30.22 in 10.0 mi Calm Calm - N/A   Scattered Clouds
10:53 AM 12.9 °F - 10.0 °F 88% 30.22 in 10.0 mi Calm Calm - N/A   Mostly Cloudy
11:53 AM 16.0 °F - 10.9 °F 81% 30.22 in 10.0 mi Calm Calm - N/A   Overcast
12:53 PM 19.0 °F - 12.9 °F 77% 30.21 in 10.0 mi Calm Calm - N/A   Overcast
1:06 PM 19.0 °F - 12.0 °F 74% 30.04 in 7.0 mi Calm Calm - 0.00 in Snow Light Snow
1:53 PM 19.9 °F - 14.0 °F 78% 30.19 in 8.0 mi Calm Calm - 0.00 in   Overcast
2:20 PM 21.0 °F - 15.1 °F 78% 30.02 in 6.0 mi Calm Calm - 0.00 in Snow Light Snow
2:53 PM 21.9 °F - 16.0 °F 78% 30.17 in 10.0 mi Calm Calm - 0.00 in   Overcast
3:53 PM 23.0 °F - 18.0 °F 81% 30.17 in 5.0 mi Calm Calm - 0.00 in Snow Light Snow
4:53 PM 24.1 °F - 19.0 °F 81% 30.18 in 6.0 mi Calm Calm - 0.00 in   Haze
5:05 PM 24.1 °F - 19.0 °F 81% 30.03 in 2.5 mi Calm Calm - 0.00 in Snow Light Snow
5:10 PM 24.1 °F - 19.9 °F 84% 30.03 in 1.2 mi Calm Calm - 0.00 in Snow Light Snow
5:15 PM 23.0 °F - 19.9 °F 88% 30.03 in 1.5 mi Calm Calm - 0.00 in Snow Light Snow
5:22 PM 23.0 °F - 19.9 °F 88% 30.02 in 3.0 mi Calm Calm - 0.00 in Snow Light Snow
5:53 PM 23.0 °F - 19.9 °F 88% 30.19 in 10.0 mi Calm Calm - 0.00 in   Overcast
6:53 PM 23.0 °F - 19.0 °F 85% 30.20 in 9.0 mi Calm Calm - N/A   Overcast
7:53 PM 21.0 °F - 18.0 °F 88% 30.19 in 10.0 mi Calm Calm - 0.00 in   Overcast
8:53 PM 19.9 °F - 17.1 °F 89% 30.19 in 8.0 mi Calm Calm - N/A   Overcast
9:53 PM 19.9 °F - 17.1 °F 89% 30.19 in 6.0 mi Calm Calm - 0.00 in Snow Light Snow
10:53 PM 19.9 °F 13.4 °F 17.1 °F 89% 30.18 in 10.0 mi WNW 4.6 mph - 0.00 in   Overcast
11:53 PM 19.9 °F - 18.0 °F 92% 30.18 in 5.0 mi Calm Calm - 0.00 in Snow Light Snow